Temperature
-3 -3 -2 -2 -1 0 1 3 4 6 8 9 9 8 10 10 11 11 11 12 12 12 13 13 13 13 13 13 12 12 12 11 11 11 11 11 11 11
-3 -2 -2 -1 -0 1 2 2 3 4 5 7 8 8 9 10 10 10 10 10 11 11 11 12 12 12 12 12 12 11 11 10 10 9 10 10 10 10
-3 -2 -1 -0 0 1 2 2 3 3 4 5 6 7 8 9 9 9 9 9 9 10 10 10 11 11 11 11 11 10 9 9 9 8 8 9 9 9
-4 -2 -1 -1 0 1 1 2 3 3 4 4 5 6 8 8 8 8 8 8 8 8 9 9 9 9 9 9 9 8 8 7 7 6 7 8 8 9
-5 -4 -2 -2 -1 -0 0 1 2 2 3 4 4 5 7 7 7 7 7 7 7 7 8 8 8 8 8 8 7 7 7 6 6 6 7 7 8 8
-6 -5 -4 -3 -2 -1 -0 0 1 2 3 3 3 4 6 7 7 6 6 6 6 6 6 6 7 7 7 7 7 6 6 6 6 6 6 7 7 7
-6 -6 -5 -4 -3 -2 -1 -0 0 1 2 2 3 4 5 5 6 6 6 6 6 5 6 6 6 6 6 6 6 6 6 6 6 6 6 6 6 6
-7 -7 -6 -5 -3 -3 -2 -1 -1 0 1 1 2 3 4 5 5 5 5 6 5 4 5 4 4 4 5 5 5 6 6 6 6 5 5 5 5 5
-8 -7 -7 -6 -5 -4 -3 -2 -2 -1 -0 0 1 1 2 3 4 5 5 5 4 4 4 4 4 4 4 4 5 5 5 5 5 5 5 5 5 5
-8 -8 -8 -7 -6 -5 -4 -3 -3 -3 -2 -1 -1 -0 0 1 2 3 4 5 5 4 4 3 3 3 3 3 3 3 4 4 4 4 4 4 4 4
-8 -8 -8 -8 -8 -7 -6 -5 -5 -5 -5 -4 -2 -1 -1 -0 1 2 3 3 3 3 3 3 2 2 2 2 1 2 2 3 3 3 3 3 3 3
-9 -9 -9 -9 -8 -8 -8 -8 -7 -7 -6 -5 -4 -3 -2 -1 -0 1 1 2 3 2 2 2 2 2 1 0 1 1 2 2 2 2 2 2 2 2
-10 -10 -10 -10 -9 -9 -9 -10 -10 -9 -8 -7 -6 -5 -4 -3 -2 -1 -0 1 1 1 0 1 1 1 1 -0 -0 0 1 1 1 1 1 1 1 1
-10 -11 -11 -10 -10 -10 -10 -10 -10 -10 -9 -9 -8 -7 -7 -6 -6 -5 -4 -3 -1 -1 -1 0 1 1 1 0 -1 -1 -1 -0 -0 -0 0 0 0 1
-12 -12 -12 -11 -11 -11 -11 -11 -10 -10 -10 -10 -10 -10 -9 -9 -8 -8 -7 -5 -4 -4 -3 -2 -1 -1 -0 -0 -1 -2 -2 -2 -2 -1 -1 -1 -0 0
-13 -13 -13 -12 -12 -12 -12 -11 -11 -12 -11 -11 -11 -11 -10 -10 -9 -9 -8 -8 -7 -6 -5 -4 -4 -3 -3 -3 -3 -4 -4 -4 -4 -3 -2 -2 -1 -1
-13 -13 -13 -13 -13 -13 -13 -13 -13 -13 -13 -12 -12 -12 -11 -10 -10 -9 -9 -8 -8 -8 -8 -7 -7 -6 -6 -6 -6 -6 -6 -6 -5 -3 -3 -2 -2 -2
-14 -14 -14 -14 -14 -14 -14 -14 -14 -14 -14 -14 -13 -13 -12 -12 -11 -11 -10 -9 -9 -9 -8 -8 -8 -7 -7 -7 -7 -8 -7 -7 -5 -4 -4 -4 -4 -4
-15 -15 -15 -15 -15 -15 -15 -15 -15 -15 -15 -15 -14 -14 -13 -13 -12 -12 -11 -11 -11 -10 -9 -9 -9 -9 -9 -9 -8 -8 -9 -8 -7 -7 -7 -6 -5 -5
-15 -15 -15 -15 -15 -15 -15 -15 -16 -16 -16 -15 -15 -15 -14 -14 -14 -14 -13 -13 -13 -12 -12 -11 -10 -10 -10 -10 -11 -10 -9 -9 -9 -9 -8 -7 -6 -6
-15 -15 -15 -15 -15 -15 -15 -16 -16 -16 -16 -16 -16 -15 -15 -15 -15 -15 -15 -14 -14 -14 -14 -13 -12 -11 -11 -11 -11 -11 -11 -10 -9 -9 -9 -8 -7 -7
-15 -15 -15 -15 -15 -15 -15 -15 -16 -16 -16 -16 -16 -16 -15 -15 -15 -15 -15 -15 -15 -14 -14 -14 -13 -13 -12 -12 -12 -12 -11 -11 -11 -10 -10 -10 -9 -8
-15 -15 -15 -15 -15 -15 -15 -15 -15 -16 -16 -16 -16 -16 -15 -15 -15 -15 -15 -15 -15 -15 -15 -15 -14 -14 -14 -13 -13 -12 -12 -12 -11 -11 -11 -10 -10 -9
Wind_Speed
16 17 16 14 14 14 14 13 12 12 15 16 12 11 9 8 9 12 11 13 14 14 15 18 22 23 23 24 25 25 25 25 24 23 21 19 18 17
15 16 16 13 13 12 13 13 12 12 12 11 11 11 11 8 10 11 10 15 14 14 15 16 19 24 28 30 30 28 25 25 23 20 19 19 19 17
16 14 13 12 10 9 10 11 12 11 11 10 8 9 12 11 9 9 11 11 12 17 19 21 24 28 31 31 30 29 27 25 23 20 17 19 19 19
17 15 10 7 8 7 8 10 11 11 10 10 8 10 11 13 11 11 10 9 11 18 21 22 24 26 29 30 30 29 27 25 25 22 19 19 20 19
16 15 13 11 10 8 9 9 10 10 9 8 10 9 7 10 11 10 10 9 11 17 21 23 24 25 27 29 30 29 27 25 25 23 20 19 18 18
16 15 14 13 12 9 7 8 7 8 8 7 9 9 8 10 12 12 11 9 10 12 13 17 21 22 23 25 27 27 27 26 24 21 19 18 18 16
16 15 14 18 20 12 4 5 6 4 4 4 7 7 8 11 12 10 13 12 10 10 12 12 14 13 15 19 21 24 25 24 22 20 20 20 19 16
14 14 13 15 19 22 23 22 16 6 2 1 2 5 4 4 7 10 14 14 8 7 11 10 10 11 10 13 18 21 22 23 23 23 22 20 18 16
13 12 12 14 16 14 19 24 25 28 21 8 8 5 4 5 2 8 9 13 8 6 11 8 8 9 7 13 20 21 22 23 22 22 21 19 17 15
13 12 13 16 17 16 15 17 18 21 22 16 13 13 11 8 7 5 9 11 9 6 5 5 5 6 9 13 18 21 21 22 21 20 18 17 16 14
14 14 16 17 24 24 18 17 17 17 20 26 27 26 29 27 17 7 6 9 6 4 5 4 5 5 6 8 14 20 20 20 19 18 17 15 12 9
11 14 22 23 25 25 18 17 16 15 15 18 20 23 21 23 26 17 9 5 5 4 4 3 5 5 5 4 6 10 14 17 17 16 14 11 7 4
10 11 15 25 26 26 22 17 17 14 13 14 14 15 15 16 17 16 14 10 8 6 5 3 3 4 5 4 3 4 7 7 8 10 11 9 7 4
9 10 14 22 24 25 20 20 21 16 11 12 13 13 13 13 13 14 16 16 16 12 11 8 4 4 5 5 5 5 5 5 5 5 5 5 5 5
12 17 19 20 19 17 21 22 18 13 12 12 12 12 11 11 10 9 11 14 17 18 17 16 9 6 5 6 6 6 5 5 4 3 2 2 2 2
10 13 17 18 16 16 16 14 13 12 12 11 10 10 10 10 10 9 8 7 9 11 13 16 13 10 8 8 7 7 5 4 4 2 1 1 1 2
7 8 9 10 10 10 10 11 11 11 11 10 10 10 10 10 10 10 9 8 8 8 8 8 9 10 8 6 6 5 5 4 3 2 2 3 3 4
9 8 9 9 9 9 9 9 9 9 9 9 9 9 9 9 9 8 8 8 8 8 8 7 5 5 5 7 9 4 4 4 2 2 2 3 4 3
9 8 8 8 7 7 7 7 7 7 7 7 7 8 7 7 7 7 7 6 7 6 6 6 6 3 4 4 4 7 4 2 2 2 2 4 5 5
7 7 7 6 6 6 6 6 5 5 5 5 6 6 6 6 6 5 5 5 5 5 5 5 6 6 5 3 1 1 3 3 2 3 4 5 6 9
6 6 6 5 5 5 5 5 5 4 4 4 4 4 4 4 4 4 3 4 4 3 3 3 4 4 2 1 2 1 0 2 4 5 5 5 6 5
5 6 5 5 5 5 4 4 4 4 3 3 3 3 3 3 3 2 2 2 2 2 2 2 1 2 2 2 3 3 4 4 6 10 12 10 5 4
6 6 5 5 5 5 4 4 5 4 4 3 3 3 3 3 3 3 3 3 3 3 3 3 2 2 3 3 4 4 6 6 6 6 6 9 13 17
Wind_Direction
286 271 264 263 260 259 256 252 255 253 245 241 230 220 211 213 204 206 206 186 187 194 200 203 204 198 188 164 154 151 142 136 134 133 134 133 130 124
299 276 262 259 256 253 250 244 239 248 256 255 237 218 201 198 195 196 176 147 145 143 139 139 142 141 137 133 131 132 132 129 130 131 133 135 130 122
317 296 270 264 264 263 256 245 236 232 242 258 250 217 197 187 178 174 156 150 142 133 127 122 121 122 124 126 129 132 134 134 132 134 149 143 130 122
331 328 315 302 299 299 289 264 244 231 230 244 232 210 198 183 168 160 150 141 140 136 129 125 124 126 128 130 133 136 138 139 140 149 158 143 130 123
339 341 342 339 326 310 306 288 259 238 224 232 235 209 186 169 158 148 137 135 140 139 133 133 133 134 136 138 139 140 141 143 144 152 152 137 125 118
344 348 351 353 341 311 300 299 272 237 224 223 224 199 175 166 163 150 138 132 135 142 137 136 137 137 140 142 142 142 142 142 145 145 136 123 115 110
349 351 353 4 2 6 358 329 299 258 228 211 197 177 164 166 167 163 145 129 121 136 136 142 143 140 139 142 144 145 143 143 143 138 130 120 112 107
355 356 358 8 12 20 36 38 33 22 345 284 154 125 106 128 148 154 147 143 134 117 115 115 136 140 147 152 147 143 141 140 138 134 128 120 113 106
1 3 12 15 23 24 35 39 34 36 40 47 63 63 61 21 105 154 169 153 127 123 125 104 97 99 100 115 131 133 133 131 129 126 122 117 112 105
7 18 27 26 30 32 37 43 40 36 38 43 50 52 57 43 31 67 102 102 93 52 87 112 98 78 66 85 103 112 117 117 116 114 111 108 104 99
17 34 41 39 36 36 35 38 38 30 32 42 46 45 44 46 43 62 104 128 113 56 31 100 120 93 65 53 76 99 103 105 105 104 103 99 100 106
16 37 46 46 41 40 38 37 37 29 28 32 37 38 40 39 40 38 34 84 105 88 31 82 125 120 96 51 44 69 89 92 92 93 94 90 84 101
20 35 45 49 47 43 42 39 39 37 36 39 40 39 40 41 40 40 41 48 69 74 40 67 96 99 116 124 88 69 83 94 100 101 95 85 68 52
34 40 45 49 49 48 45 40 39 39 39 43 43 40 38 40 45 49 51 56 58 58 45 50 77 106 124 122 128 129 119 112 115 114 112 106 98 78
45 56 53 50 47 45 44 42 38 36 37 41 42 41 39 37 40 53 63 63 59 55 49 47 53 60 77 112 125 140 141 133 125 114 100 77 50 20
39 42 46 48 48 45 43 41 40 40 39 39 39 39 39 39 38 35 45 57 63 59 50 48 50 59 75 85 103 119 122 128 129 95 34 353 325 290
50 45 41 38 38 39 42 42 39 37 39 36 35 36 37 40 38 33 40 56 61 60 51 45 55 66 62 69 103 110 117 115 95 50 354 317 295 279
50 47 42 38 35 32 33 36 36 35 33 34 34 34 35 36 38 38 41 50 58 53 45 35 52 104 96 62 35 88 101 97 69 7 319 298 290 278
49 47 42 36 32 30 28 28 30 29 25 29 32 29 30 33 37 37 39 49 57 56 46 35 31 50 122 119 69 39 68 62 355 307 292 287 286 292
41 38 35 31 26 23 22 20 18 17 17 17 21 23 21 22 28 32 34 34 49 56 58 51 42 38 45 56 56 81 29 340 319 305 304 299 289 286
22 19 16 13 10 5 1 2 3 5 8 358 4 9 10 10 14 15 21 24 30 42 47 50 41 8 354 314 273 274 339 311 301 294 305 301 298 288
355 356 356 351 346 342 336 332 331 336 344 340 345 340 336 335 335 329 336 343 352 355 339 342 345 319 304 301 305 306 302 303 281 268 259 254 272 287
332 336 337 337 330 325 319 313 307 310 315 313 305 294 282 278 281 282 279 277 282 286 288 294 292 280 279 277 279 282 284 287 286 281 268 251 255 265
Height
1408 1406 1403 1402 1403 1405 1408 1411 1412 1410 1410 1412 1414 1415 1418 1421 1423 1425 1428 1431 1435 1440 1444 1449 1455 1461 1467 1473 1478 1483 1487 1492 1497 1503 1508 1512 1515 1518
1402 1399 1397 1396 1397 1398 1400 1402 1404 1405 1404 1406 1408 1410 1412 1415 1418 1420 1423 1426 1430 1434 1437 1442 1447 1453 1460 1466 1472 1477 1483 1487 1493 1499 1505 1510 1512 1513
1396 1393 1391 1391 1391 1392 1392 1394 1395 1397 1397 1400 1403 1404 1406 1409 1412 1416 1419 1422 1426 1430 1434 1438 1443 1448 1454 1460 1466 1472 1478 1483 1488 1495 1507 1509 1507 1508
1392 1388 1386 1385 1384 1384 1385 1386 1387 1389 1392 1394 1397 1399 1401 1403 1407 1411 1415 1419 1424 1428 1433 1437 1442 1447 1452 1456 1462 1468 1475 1481 1486 1497 1507 1506 1504 1504
1389 1384 1381 1379 1379 1378 1378 1378 1380 1382 1384 1387 1391 1394 1395 1398 1402 1407 1412 1417 1422 1426 1431 1437 1443 1448 1452 1457 1462 1468 1474 1481 1487 1498 1503 1501 1500 1500
1388 1382 1379 1376 1375 1374 1373 1373 1374 1375 1377 1379 1385 1387 1388 1391 1397 1402 1408 1414 1419 1425 1430 1436 1443 1449 1454 1458 1463 1468 1474 1481 1489 1495 1496 1495 1496 1498
1389 1384 1379 1377 1374 1372 1371 1370 1370 1370 1370 1372 1378 1379 1381 1385 1391 1397 1402 1409 1417 1424 1429 1435 1441 1446 1452 1459 1464 1468 1474 1480 1485 1488 1489 1490 1492 1495
1391 1386 1382 1378 1374 1372 1370 1368 1367 1366 1366 1368 1371 1372 1375 1379 1386 1392 1399 1405 1414 1420 1425 1433 1440 1446 1451 1457 1462 1467 1471 1476 1480 1483 1485 1487 1490 1493
1394 1389 1385 1381 1377 1373 1370 1368 1367 1365 1365 1366 1367 1369 1372 1376 1382 1389 1396 1402 1409 1416 1424 1430 1437 1442 1449 1454 1460 1465 1469 1473 1476 1479 1482 1485 1488 1491
1396 1393 1389 1385 1381 1377 1373 1371 1369 1366 1366 1365 1367 1369 1371 1375 1380 1385 1389 1397 1406 1413 1421 1427 1434 1440 1446 1452 1457 1462 1466 1469 1473 1476 1479 1482 1485 1488
1399 1396 1393 1389 1385 1380 1377 1375 1373 1372 1370 1368 1368 1369 1371 1375 1379 1384 1389 1395 1402 1410 1417 1423 1430 1437 1443 1448 1453 1458 1462 1466 1469 1473 1476 1480 1483 1485
1403 1400 1397 1394 1390 1386 1383 1380 1378 1378 1375 1373 1372 1372 1375 1377 1380 1385 1390 1395 1400 1408 1414 1419 1426 1433 1441 1446 1450 1453 1458 1462 1466 1469 1473 1477 1480 1482
1407 1405 1402 1399 1396 1392 1390 1388 1386 1384 1381 1380 1379 1379 1380 1381 1384 1387 1390 1395 1400 1405 1411 1417 1422 1428 1435 1441 1446 1451 1455 1459 1463 1466 1469 1472 1476 1478
1411 1409 1407 1404 1401 1399 1396 1394 1392 1390 1388 1387 1385 1385 1385 1387 1389 1391 1394 1396 1400 1404 1410 1415 1420 1426 1431 1436 1442 1448 1452 1456 1459 1462 1465 1467 1471 1473
1415 1413 1411 1408 1406 1404 1402 1401 1399 1396 1395 1393 1392 1392 1393 1394 1396 1397 1399 1401 1403 1406 1410 1415 1419 1423 1428 1432 1437 1443 1448 1452 1455 1458 1460 1463 1465 1467
1418 1417 1415 1413 1411 1409 1408 1406 1404 1403 1402 1401 1401 1401 1401 1401 1402 1402 1404 1405 1407 1410 1413 1416 1420 1423 1426 1430 1435 1439 1443 1447 1450 1452 1455 1458 1460 1462
1422 1421 1419 1417 1415 1414 1412 1411 1410 1409 1408 1407 1407 1406 1406 1406 1406 1407 1408 1410 1412 1414 1416 1418 1421 1423 1426 1430 1434 1437 1440 1443 1445 1448 1451 1453 1455 1456
1425 1424 1422 1421 1419 1418 1416 1415 1414 1413 1412 1412 1411 1410 1410 1410 1410 1411 1412 1413 1415 1417 1419 1421 1423 1426 1428 1431 1433 1436 1438 1440 1442 1444 1446 1448 1450 1450
1429 1427 1426 1424 1423 1421 1420 1419 1417 1416 1415 1415 1414 1413 1413 1413 1414 1415 1416 1417 1418 1420 1422 1424 1425 1427 1429 1431 1432 1434 1436 1437 1439 1441 1442 1444 1445 1445
1433 1431 1430 1428 1426 1425 1423 1422 1421 1420 1418 1417 1416 1415 1415 1415 1416 1417 1419 1420 1421 1422 1423 1425 1426 1426 1428 1430 1432 1433 1434 1435 1437 1438 1438 1439 1439 1440
1436 1434 1432 1431 1429 1427 1425 1424 1423 1422 1420 1419 1418 1417 1417 1418 1418 1420 1421 1421 1422 1422 1424 1425 1425 1426 1427 1429 1430 1431 1432 1432 1433 1434 1434 1435 1435 1435
1438 1436 1434 1432 1430 1428 1426 1425 1424 1423 1422 1421 1420 1420 1420 1420 1421 1421 1422 1422 1423 1423 1424 1424 1424 1425 1426 1426 1427 1428 1429 1430 1430 1431 1431 1431 1430 1430
1439 1437 1435 1433 1431 1428 1427 1425 1424 1423 1422 1422 1421 1421 1421 1422 1422 1422 1422 1422 1423 1423 1423 1424 1423 1423 1424 1424 1425 1426 1427 1428 1428 1428 1428 1427 1426 1426